Location: Utrecht
(52.0907°N, 5.1214°E)
Time: 12:42:18
(UTC+02:00)

SPROUT - Pass Details

Date: 06 July 2022
Orbit: 588 x 598 km, 97.9° (Epoch: 17 August)

Event Time Altitude Azimuth Distance (km) Brightness Sun altitude
Exits shadow 03:06:32 19° 217° (SW) 1,408 ? -13.1°
Maximum altitude 03:08:39 30° 265° (W) 1,067 ? -13.0°
Drops below altitude 10° 03:12:22 10° 327° (NNW) 1,932 ? -12.8°
Sets 03:14:46 0° 338° (NNW) 2,840 ? -12.6°
